Total_Precipitation_Accumulation
2.21 2.53 2.89 3.22 3.73 3.80 3.69 3.77 3.95 4.16 4.31 4.61 4.71 4.98 5.32 5.55 5.72 5.68 5.48 5.50 5.42 5.52 5.59 5.39 5.26 5.12 5.10 5.02 4.98 4.83 4.61 4.31 4.21 4.19 3.81 3.27 3.06 3.04 2.92 2.88 2.93 3.01 2.99
2.55 2.77 2.93 3.34 3.84 4.06 4.09 4.13 4.28 4.61 4.85 5.14 5.61 5.93 6.21 6.45 6.62 6.64 6.19 5.93 5.80 5.70 5.61 5.67 5.62 5.47 5.36 5.21 5.02 4.91 4.69 4.30 4.22 4.22 4.14 3.68 3.36 2.96 2.54 2.52 2.57 2.73 2.90
2.72 2.82 2.89 3.28 3.64 3.89 4.05 4.25 4.49 4.94 5.49 5.88 6.30 6.66 6.88 6.92 6.74 6.43 6.31 6.13 5.96 5.83 5.66 5.56 5.37 5.28 5.16 5.07 4.91 4.71 4.54 4.30 4.14 4.09 4.26 3.95 3.50 3.04 2.70 2.36 2.31 2.43 2.56
2.64 2.78 2.89 3.17 3.53 3.82 4.02 4.39 4.93 5.61 6.13 6.53 7.07 7.58 7.70 7.42 7.08 6.63 6.19 5.94 5.71 5.40 5.16 5.08 5.01 4.89 4.55 4.37 4.23 4.20 4.05 3.91 3.71 3.76 3.69 3.53 3.33 3.32 3.21 2.93 2.70 2.64 2.61
2.34 2.61 2.75 2.97 3.46 3.75 4.00 4.37 4.97 5.72 6.42 7.19 7.81 8.21 8.07 7.69 7.24 6.56 5.99 5.53 5.15 4.80 4.52 4.43 4.33 4.11 3.72 3.39 3.29 3.48 3.51 3.50 3.39 3.39 3.40 3.38 3.20 3.12 3.14 3.09 3.01 2.96 2.77
2.11 2.23 2.42 2.75 3.26 3.54 3.74 4.12 4.76 5.54 6.20 6.78 7.24 7.48 7.37 7.17 6.62 5.92 5.32 4.90 4.60 4.28 3.91 3.57 3.35 3.10 2.92 2.74 2.72 2.81 2.89 3.12 3.21 3.33 3.33 3.31 3.18 3.04 3.08 2.98 2.93 2.97 2.85
1.97 1.99 2.15 2.43 2.85 3.02 3.35 3.75 4.20 4.87 5.31 5.64 5.97 6.15 6.23 6.03 5.71 5.22 4.76 4.33 3.86 3.52 3.21 2.88 2.77 2.61 2.51 2.46 2.48 2.52 2.48 2.60 2.78 2.89 3.00 3.08 3.04 3.00 3.05 3.16 3.12 2.94 2.76
1.93 1.97 2.11 2.31 2.60 2.80 2.97 3.12 3.39 3.78 3.94 4.00 4.23 4.50 4.54 4.51 4.38 4.11 3.74 3.44 3.09 2.73 2.51 2.28 2.11 2.08 2.14 2.10 2.20 2.24 2.26 2.27 2.34 2.41 2.66 2.77 2.76 2.78 2.75 2.80 2.94 2.99 2.80
1.76 1.94 2.05 2.09 2.12 2.18 2.28 2.39 2.56 2.71 2.78 2.88 2.98 3.13 3.16 3.15 3.10 2.98 2.73 2.52 2.34 2.06 1.90 1.83 1.79 1.75 1.80 1.92 1.96 1.92 1.95 2.07 2.10 2.14 2.28 2.31 2.30 2.37 2.43 2.53 2.64 2.84 2.85
1.64 1.81 1.95 1.93 1.93 1.87 1.95 2.04 2.14 2.20 2.21 2.27 2.28 2.24 2.29 2.30 2.31 2.18 2.06 2.00 1.91 1.78 1.73 1.64 1.57 1.52 1.52 1.55 1.66 1.70 1.72 1.78 1.90 1.97 2.00 2.00 1.96 2.03 2.10 2.26 2.43 2.52 2.58
1.62 1.80 1.81 1.76 1.75 1.73 1.78 1.84 1.84 1.84 1.82 1.79 1.83 1.83 1.77 1.79 1.87 1.88 1.77 1.72 1.65 1.52 1.49 1.40 1.31 1.28 1.28 1.33 1.45 1.49 1.54 1.60 1.70 1.79 1.77 1.77 1.77 1.85 1.85 1.88 1.96 2.11 2.22
1.71 1.73 1.69 1.64 1.56 1.60 1.63 1.69 1.64 1.60 1.65 1.57 1.52 1.52 1.56 1.56 1.60 1.60 1.50 1.46 1.49 1.40 1.35 1.24 1.15 1.10 1.11 1.17 1.22 1.25 1.27 1.40 1.45 1.48 1.52 1.50 1.54 1.59 1.59 1.63 1.66 1.75 1.90
2.08 1.92 1.74 1.71 1.66 1.62 1.55 1.43 1.43 1.43 1.48 1.50 1.47 1.43 1.46 1.50 1.49 1.46 1.45 1.41 1.43 1.39 1.28 1.12 1.06 1.02 1.00 1.01 1.07 1.12 1.11 1.14 1.22 1.25 1.33 1.36 1.41 1.37 1.31 1.37 1.47 1.52 1.58
2.35 2.15 1.90 1.80 1.75 1.69 1.62 1.51 1.48 1.37 1.34 1.39 1.41 1.44 1.48 1.51 1.50 1.51 1.53 1.47 1.37 1.29 1.21 1.13 1.04 1.00 0.95 0.96 0.97 0.96 1.00 1.04 1.10 1.11 1.15 1.16 1.19 1.22 1.26 1.28 1.42 1.49 1.61
2.26 2.19 2.10 2.00 1.89 1.76 1.70 1.58 1.48 1.35 1.32 1.30 1.34 1.39 1.42 1.44 1.38 1.43 1.45 1.43 1.42 1.29 1.22 1.14 1.06 0.93 0.84 0.80 0.84 0.85 0.88 0.97 1.01 1.02 1.00 0.99 1.04 1.13 1.13 1.10 1.22 1.39 1.57
2.39 2.25 2.12 2.01 1.96 1.84 1.73 1.62 1.53 1.46 1.41 1.38 1.36 1.31 1.32 1.29 1.26 1.27 1.31 1.26 1.22 1.23 1.19 1.09 0.98 0.86 0.71 0.74 0.75 0.76 0.82 0.93 0.98 0.95 0.94 0.91 0.89 0.93 0.98 0.98 1.05 1.22 1.36
2.54 2.29 2.17 2.12 2.05 2.01 1.92 1.79 1.62 1.52 1.31 1.23 1.20 1.15 1.13 1.12 1.14 1.11 1.14 1.19 1.25 1.25 1.17 1.06 1.01 0.95 0.83 0.67 0.58 0.62 0.74 0.89 0.90 0.90 0.94 0.85 0.78 0.88 0.91 0.94 0.93 0.97 1.01
2.78 2.50 2.26 2.17 2.11 2.02 1.87 1.68 1.51 1.34 1.17 1.11 1.09 1.02 0.98 0.99 1.06 1.04 1.05 1.14 1.17 1.17 1.17 1.14 1.17 1.15 0.92 0.69 0.53 0.58 0.74 0.85 0.79 0.78 0.86 0.93 0.94 0.90 0.91 0.91 0.94 0.97 0.97
2.75 2.56 2.31 2.15 2.05 1.85 1.69 1.55 1.32 1.20 1.13 1.05 1.04 0.94 0.88 0.95 0.98 0.94 0.97 1.06 1.07 1.07 1.09 1.11 1.18 1.16 1.00 0.78 0.62 0.63 0.75 0.83 0.81 0.80 0.78 0.79 0.85 0.85 0.90 0.97 1.13 1.17 1.15
2.39 2.33 2.12 1.95 1.87 1.67 1.52 1.48 1.34 1.18 1.12 1.04 1.01 0.94 0.94 0.96 0.99 1.00 0.99 0.94 0.97 0.96 0.94 1.00 1.10 1.06 0.96 0.76 0.59 0.60 0.64 0.75 0.87 0.97 0.96 0.92 0.85 0.83 0.89 1.03 1.21 1.28 1.25
1.97 2.00 1.93 1.88 1.73 1.53 1.48 1.57 1.57 1.36 1.11 1.01 0.97 1.00 1.02 0.98 0.97 1.00 0.98 0.92 0.86 0.90 0.94 0.94 1.01 1.03 0.86 0.68 0.57 0.60 0.63 0.71 0.83 0.93 1.01 0.97 0.92 0.89 0.90 0.96 1.12 1.22 1.22
1.63 1.75 1.89 1.83 1.76 1.60 1.55 1.57 1.55 1.36 1.16 1.10 1.07 1.02 0.96 0.86 0.86 0.99 0.96 0.90 0.91 0.95 1.01 0.99 0.99 0.94 0.77 0.59 0.52 0.58 0.63 0.65 0.76 0.90 0.90 0.92 0.93 0.92 0.95 0.96 1.07 1.18 1.34
1.51 1.60 1.69 1.70 1.68 1.56 1.56 1.56 1.48 1.28 1.20 1.21 1.17 1.08 0.97 0.90 0.90 0.99 0.97 0.89 0.91 0.90 0.87 0.85 0.88 0.84 0.71 0.62 0.54 0.55 0.57 0.58 0.63 0.74 0.79 0.80 0.80 0.86 0.99 1.07 1.14 1.27 1.52
1.36 1.45 1.54 1.56 1.54 1.43 1.40 1.41 1.31 1.27 1.31 1.26 1.18 1.14 1.05 0.95 0.90 0.90 0.86 0.84 0.83 0.85 0.84 0.80 0.77 0.72 0.66 0.58 0.51 0.52 0.53 0.53 0.54 0.62 0.74 0.83 0.89 0.98 1.13 1.29 1.39 1.43 1.51
1.23 1.30 1.47 1.52 1.42 1.28 1.18 1.15 1.23 1.30 1.36 1.25 1.09 1.01 0.94 0.88 0.90 0.86 0.78 0.76 0.71 0.71 0.76 0.72 0.63 0.58 0.54 0.48 0.50 0.52 0.53 0.52 0.54 0.60 0.73 0.95 1.09 1.18 1.22 1.28 1.36 1.37 1.33
1.11 1.19 1.24 1.30 1.25 1.16 1.12 1.05 1.12 1.18 1.19 1.11 0.99 0.90 0.82 0.79 0.74 0.74 0.73 0.74 0.69 0.62 0.62 0.63 0.55 0.46 0.46 0.46 0.44 0.44 0.46 0.53 0.60 0.63 0.79 0.98 1.08 1.15 1.21 1.24 1.25 1.22 1.19